COSMOS 1333

导读 | 星芒AI

COSMOS 1333 是苏联于1981年12月17日发射的一颗军用侦察卫星,搭载于联盟号火箭,任务涉及地球观测和情报收集。该卫星属于“宇宙”系列,具体任务细节未公开,但推测其具备光学或电子侦察能力。卫星在轨运行一段时间后失联,最终再入大气层销毁。COSMOS 1333 的发射体现了冷战时期苏联在空间侦察领域的持续发展与技术能力。

基本信息
目录编号:
13033
目录名称:
COSMOS 1333
国际标识:
1982-003A
轨道中心:
EARTH
卫星名称:
COSMOS 1333
卫星全名:
--
卫星状态:
在轨 (已飞行16041 天)
发射日期:
1982-01-14 UTC
国别 :
俄罗斯(独联体) (CIS)
星等 :
--
轨道信息
数据来源 国际轨道数据 AOE轨道数据
星历时间 2025-12-14T15:44:03+0800
1天前
查看轨道信息
2025-12-10T07:00:00+0800
5天前
查看轨道信息
半长轴 7365.334km 7365.336km
偏心率 0.0031978 0.0032004
轨道倾角 82.942° 82.940°
近地点辐角 346.516° 358.318°
升交点赤经 301.830° 305.053°
平近点角 124.437° 147.630°
近地点 963.646km 963.628km
远地点 1010.752km 1010.774km
周期 104.845分钟 104.845分钟
每日圈数 13.73454 13.734535
详细信息
使用方式:
暂无
2D轨道图
3D轨道图
轨道高度分析图
轨道倾角分析图
轨道综合分析图
查看轨道综合分析图